Location: B?jaj?g
(11.7167°N, 92.6667°E)
Time: 12:30:19
(UTC+00:00)

Cosmos 1300 Rocket - Pass Details

Date: 18 September 2020
Orbit: 602 x 626 km, 82.5° (Epoch: 23 October)

Event Time Altitude Azimuth Distance (km) Brightness Sun altitude
Rises 13:15:34 0° 191° (S) 2,857 7.0 -22.2°
Reaches altitude 10° 13:17:47 10° 194° (SSW) 1,957 6.2 -22.8°
Maximum altitude 13:22:04 60° 275° (W) 699 4.0 -23.8°
Drops below altitude 10° 13:26:22 10° 355° (N) 1,973 6.3 -24.8°
Sets 13:28:38 0° 359° (N) 2,882 7.1 -25.4°
